[[{"header":{"parameterUnit":"m.s-1","parameterCategory":1,"la1":30.2991,"la2":30.254,"lo1":-89.0895,"lo2":-89.0444,"dy":0.0017,"dx":0.0017,"nx":28,"ny":28,"refTime":"2023-11-01T21:00:00:Z","depth":0,"parameterNumber":2,"parameterNumberName":"U-component_of_WINDS"},"data":[0,0,0,0,0,0,0,0,0,0,0,0,0,0,0,0,0,0,0,0,0,0,0,0,0,0,0,0,0,0,0,0,0,0,0,0,0,0,0,0,0,0,0,0,0,0,0,0,0,0,0,0,0,0,0,0,0,0,-3.5973,-3.5974,0,-3.6068,-3.6069,-3.6071,-3.5941,-3.5936,-3.5932,-3.5927,-3.6028,-3.6034,-3.6041,0,0,0,0,0,0,0,0,0,0,0,0,0,-3.5681,-3.5687,-3.5973,-3.5974,-3.5975,-3.6068,-3.6069,-3.6071,-3.5942,-3.5936,-3.593,-3.5925,-3.6025,-3.6034,-3.6042,0,0,0,0,0,0,0,0,0,0,0,0,0,-3.5795,-3.5689,-3.5973,-3.5922,-3.5918,-3.6068,-3.607,-3.6071,-3.5943,-3.5936,-3.5929,-3.5922,-3.6022,-3.6033,-3.6043,-3.6248,0,0,-3.6075,-3.608,0,0,0,0,0,0,0,0,-3.5789,-3.5806,-3.5928,-3.5926,-3.5922,-3.5985,-3.6003,-3.613,-3.5945,-3.5934,-3.5927,-3.5919,-3.6019,-3.603,-3.6063,-3.6252,-3.6257,-3.6076,-3.6082,-3.6087,-3.609,0,0,0,0,0,0,0,-3.5781,-3.5801,-3.6011,-3.593,-3.5927,-3.5895,-3.5904,-3.6027,-3.6015,-3.5934,-3.5925,-3.5938,-3.6016,-3.6053,-3.6064,-3.6258,-3.6076,-3.6085,-3.6092,-3.6096,-3.6619,-3.6626,0,0,0,0,0,0,-3.5779,-3.5796,-3.6008,-3.6014,-3.5837,-3.5906,-3.5916,-3.5972,-3.6013,-3.6012,-3.5944,-3.5931,-3.6039,-3.6052,-3.6067,-3.6309,-3.6087,-3.6097,-3.6103,-3.6612,-3.6621,-3.6629,0,0,0,0,0,0,-3.5773,-3.5799,-3.6004,-3.5902,-3.5926,-3.5918,-3.5983,-3.5978,-3.6014,-3.602,-3.6017,-3.5983,-3.6034,-3.6053,-3.6203,-3.6311,-3.6102,-3.6111,-3.6603,-3.6615,-3.6625,-3.6794,0,0,0,0,0,0,-3.5765,-3.5798,-3.5875,-3.5905,-3.5932,-3.6138,-3.599,-3.5985,-3.6033,-3.6017,-3.6057,-3.6057,-3.603,-3.6188,-3.6214,-3.6321,-3.6119,-3.6593,-3.6608,-3.6621,-3.6779,-3.681,-3.6836,0,0,0,0,0,-3.5755,-3.592,-3.588,-3.5906,-3.6028,-3.6145,-3.616,-3.6125,-3.6042,-3.612,-3.6123,-3.6055,-3.6295,-3.6205,-3.6232,-3.6345,-3.6586,-3.6604,-3.662,-3.6766,-3.6804,-3.6836,0,0,0,0,0,0,-3.5904,-3.5923,-3.5879,-3.6057,-3.61,-3.6122,-3.6219,-3.6166,-3.6234,-3.6218,-3.6172,-3.6182,-3.6343,-3.6359,-3.6258,-3.6544,-3.6427,-3.645,-3.6528,-3.6564,-3.6592,-3.6585,-3.6128,0,0,0,0,0,-3.5957,-3.605,-3.6061,-3.6218,-3.6242,-3.6228,-3.6277,-3.6246,-3.6289,-3.6307,-3.6321,-3.6366,-3.6451,-3.6509,-3.6587,-3.6781,-3.6787,-3.6871,-3.69,-3.6924,-3.6945,-3.7047,-3.7085,-3.6685,-3.6685,-3.6685,0,0,-3.6069,-3.609,-3.6152,-3.6248,-3.6278,-3.6375,-3.6244,-3.6352,-3.6424,-3.6323,-3.6466,-3.6479,-3.6526,-3.6699,-3.6776,-3.6717,-3.7056,-3.6946,-3.6964,-3.6972,-3.7069,-3.7107,-3.714,-3.6697,-3.6695,-3.6693,0,0,-3.6321,-3.6347,-3.648,-3.6512,-3.6558,-3.6548,-3.658,-3.661,-3.6614,-3.6757,-3.6683,-3.6768,-3.6916,-3.6953,-3.6991,-3.7257,-3.7197,-3.7284,-3.7434,-3.7535,-3.7566,-3.7594,-3.7689,-3.7723,-3.7305,-3.7305,-3.7306,0,-3.6454,-3.6597,-3.6555,-3.6669,-3.6714,-3.6626,-3.6761,-3.6794,-3.6865,-3.6898,-3.683,-3.7014,-3.7039,-3.7219,-3.7284,-3.7318,-3.7353,-3.7279,-3.7565,-3.7592,-3.7618,-3.7707,-3.7743,-3.7315,-3.7314,-3.7313,-3.7312,0,-3.6758,-3.6858,-3.696,-3.7029,-3.7085,-3.7209,-3.7186,-3.7248,-3.7213,-3.7209,-3.7355,-3.7383,-3.7465,-3.7506,-3.7473,-3.7682,-3.7643,-3.7572,-3.7453,-3.7667,-3.775,-3.7784,-3.733,-3.7326,-3.7323,-3.7321,0,0,-3.7107,-3.7151,-3.7189,-3.7219,-3.7263,-3.734,-3.746,-3.7539,-3.7593,-3.7645,-3.7744,-3.7871,-3.7804,-3.7848,-3.7818,-3.7907,-3.8115,-3.7824,-3.7824,-3.7877,-3.8346,-3.84,-3.844,-3.8076,-3.8082,-3.8087,-3.8342,0,-3.7359,-3.7565,-3.7531,-3.773,-3.7822,-3.774,-3.7845,-3.7884,-3.7884,-3.7962,-3.7962,-3.8053,-3.7959,-3.7984,-3.8068,-3.8072,-3.8209,-3.8053,-3.8168,-3.8173,-3.8158,-3.8484,-3.854,-3.878,-3.8375,-3.838,-3.8384,0,-3.768,-3.7742,-3.7951,-3.798,-3.8017,-3.8112,-3.8182,-3.8258,-3.83,-3.8294,-3.8342,-3.8296,-3.8416,-3.8295,-3.8459,-3.8354,-3.8399,-3.8409,-3.8417,-3.8426,-3.8291,-3.8501,-3.8855,-3.8891,-3.8435,-3.8431,-3.8427,0,-3.7913,-3.8049,-3.8191,-3.8219,-3.8257,-3.8325,-3.8344,-3.838,-3.843,-3.8491,-3.8523,-3.8599,-3.864,-3.87,-3.8675,-3.859,-3.8845,-3.8722,-3.8843,-3.8844,-3.89,-3.8897,-3.9266,-3.8931,-3.893,-3.8929,-3.8929,0,-3.8198,-3.8328,-3.8296,-3.8384,-3.8528,-3.8487,-3.8631,-3.8641,-3.8673,-3.8761,-3.8696,-3.878,-3.8743,-3.8825,-3.8807,-3.8945,-3.8965,-3.8963,-3.8957,-3.8969,-3.8969,-3.8997,-3.898,-3.8939,-3.8937,-3.8935,-3.8933,0,-3.8482,-3.8466,-3.8615,-3.8638,-3.8647,-3.8753,-3.8772,-3.8855,-3.8849,-3.8962,-3.8986,-3.8978,-3.9071,-3.9053,-3.9156,-3.9143,-3.9317,-3.9291,-3.9303,-3.9296,-3.9418,-3.9407,-3.9818,-3.987,-3.9502,-3.9505,-3.9508,0,-3.8664,-3.8763,-3.8796,-3.885,-3.8874,-3.8962,-3.9012,-3.8977,-3.9032,-3.9087,-3.9163,-3.925,-3.9318,-3.947,-3.9474,-3.9553,-3.9527,-3.9666,-3.9538,-3.9547,-3.9528,-3.9523,-3.9532,-3.9691,-3.9695,-3.9699,-3.9701,0,-3.8989,-3.8976,-3.9051,-3.9123,-3.9185,-3.924,-3.9289,-3.9337,-3.9306,-3.9371,-3.9465,-3.9517,-3.9622,-3.9709,-3.9782,-3.9802,-3.9747,-3.9741,-3.9773,-3.9787,-3.9789,-3.9789,-3.9371,-3.9732,-3.9729,-3.9727,-3.9725,-3.9724,-3.9228,-3.9311,-3.9347,-3.9433,-3.9466,-3.9513,-3.9591,-3.9595,-3.9672,-3.9754,-3.9728,-3.9835,-3.9875,-3.9967,-3.9995,-4.0079,-4.0027,-4.0074,-4.0085,-4.0097,-4.0112,-3.9777,-4.0092,-4.0091,-4.009,-4.009,-4.0089,0,-3.9548,-3.9568,-3.9647,-3.9717,-3.9784,-3.9726,-3.9777,-3.9837,-3.9932,-3.9973,-4.004,-4.0148,-4.0233,-4.0243,-4.0323,-4.0388,-4.0365,-4.041,-4.0404,-4.041,-4.0154,-4.0118,-4.0427,-4.0427,-4.0427,-4.0427,-4.0427,-4.0427,-3.9723,-3.9861,-3.9852,-4.0006,-4.0024,-4.0127,-4.0162,-4.0205,-4.0238,-4.0361,-4.043,-4.0436,-4.0465,-4.0546,-4.0621,-4.0622,-4.0654,-4.071,-4.0701,-4.0462,-4.0428,-4.0396,-4.0362,-4.0717,-4.0717,-4.095,-4.0952,-4.0953]},{"header":{"parameterUnit":"m.s-1","parameterCategory":1,"la1":30.2991,"la2":30.254,"lo1":-89.0895,"lo2":-89.0444,"dy":0.0017,"dx":0.0017,"nx":28,"ny":28,"refTime":"2023-11-01T21:00:00:Z","depth":0,"parameterNumber":3,"parameterNumberName":"V-component_of_WINDS"},"data":[0,0,0,0,0,0,0,0,0,0,0,0,0,0,0,0,0,0,0,0,0,0,0,0,0,0,0,0,0,0,0,0,0,0,0,0,0,0,0,0,0,0,0,0,0,0,0,0,0,0,0,0,0,0,0,0,0,0,-1.5836,-1.5835,0,-1.5798,-1.5797,-1.5797,-1.5842,-1.5844,-1.5846,-1.5847,-1.5804,-1.5801,-1.5798,0,0,0,0,0,0,0,0,0,0,0,0,0,-1.594,-1.5938,-1.5836,-1.5835,-1.5835,-1.5798,-1.5797,-1.5797,-1.5842,-1.5844,-1.5846,-1.5848,-1.5804,-1.5801,-1.5798,0,0,0,0,0,0,0,0,0,0,0,0,0,-1.5898,-1.5938,-1.5836,-1.5853,-1.5854,-1.5798,-1.5797,-1.5797,-1.5842,-1.5844,-1.5847,-1.5849,-1.5805,-1.5801,-1.5797,-1.5721,0,0,-1.5785,-1.5783,0,0,0,0,0,0,0,0,-1.59,-1.5894,-1.5851,-1.5852,-1.5853,-1.5828,-1.5818,-1.5771,-1.5841,-1.5846,-1.5847,-1.585,-1.5809,-1.5805,-1.5792,-1.5719,-1.5717,-1.5784,-1.5782,-1.578,-1.5779,0,0,0,0,0,0,0,-1.5903,-1.5896,-1.5821,-1.585,-1.5851,-1.586,-1.5857,-1.581,-1.5814,-1.5846,-1.5849,-1.5844,-1.581,-1.5796,-1.5791,-1.5716,-1.5785,-1.5781,-1.5778,-1.5777,-1.5574,-1.5571,0,0,0,0,0,0,-1.5905,-1.5898,-1.5822,-1.5819,-1.5883,-1.5856,-1.5853,-1.5833,-1.5814,-1.5814,-1.5842,-1.5847,-1.5802,-1.5796,-1.579,-1.5696,-1.578,-1.5776,-1.5774,-1.5577,-1.5573,-1.557,0,0,0,0,0,0,-1.5907,-1.5898,-1.5823,-1.586,-1.5851,-1.5852,-1.5829,-1.5831,-1.5817,-1.5812,-1.5812,-1.5827,-1.5803,-1.5796,-1.5737,-1.5695,-1.5774,-1.5771,-1.558,-1.5576,-1.5572,-1.5508,0,0,0,0,0,0,-1.591,-1.5898,-1.5871,-1.5859,-1.5849,-1.5773,-1.5827,-1.5828,-1.581,-1.5816,-1.5798,-1.5797,-1.5805,-1.5743,-1.5733,-1.5691,-1.5768,-1.5584,-1.5578,-1.5573,-1.5514,-1.5502,-1.5492,0,0,0,0,0,-1.5913,-1.5854,-1.5869,-1.586,-1.5815,-1.577,-1.5764,-1.5776,-1.5807,-1.5777,-1.5774,-1.5798,-1.5702,-1.5737,-1.5726,-1.5681,-1.5587,-1.558,-1.5574,-1.5519,-1.5505,-1.5492,0,0,0,0,0,0,-1.586,-1.5853,-1.5869,-1.5805,-1.5788,-1.5778,-1.5742,-1.5761,-1.5734,-1.574,-1.5754,-1.5749,-1.5686,-1.5679,-1.5718,-1.5604,-1.5649,-1.564,-1.5611,-1.5597,-1.5587,-1.5588,-1.5764,0,0,0,0,0,-1.5841,-1.5807,-1.5803,-1.5746,-1.5737,-1.5741,-1.5722,-1.5732,-1.5715,-1.5707,-1.5699,-1.568,-1.5645,-1.5621,-1.5589,-1.5514,-1.5509,-1.5478,-1.5467,-1.5458,-1.5449,-1.5404,-1.5389,-1.5549,-1.5549,-1.5549,0,0,-1.58,-1.5793,-1.577,-1.5735,-1.5723,-1.5685,-1.5734,-1.5693,-1.5664,-1.57,-1.5644,-1.5637,-1.5616,-1.5548,-1.5517,-1.5539,-1.5404,-1.545,-1.5443,-1.5438,-1.5396,-1.5381,-1.5368,-1.5544,-1.5545,-1.5546,0,0,-1.5707,-1.5699,-1.5649,-1.5637,-1.5618,-1.5621,-1.5609,-1.5596,-1.5593,-1.5537,-1.5562,-1.5528,-1.5469,-1.5451,-1.5434,-1.5332,-1.5351,-1.5322,-1.5263,-1.5219,-1.5207,-1.5195,-1.5155,-1.514,-1.5313,-1.5313,-1.5313,0,-1.5658,-1.5604,-1.5621,-1.5577,-1.5559,-1.5592,-1.5539,-1.5526,-1.5497,-1.5482,-1.5508,-1.5432,-1.5421,-1.5347,-1.5322,-1.5309,-1.5292,-1.5322,-1.5208,-1.5197,-1.5186,-1.5147,-1.5132,-1.5309,-1.531,-1.531,-1.5311,0,-1.5543,-1.5505,-1.5467,-1.5439,-1.5417,-1.5369,-1.5376,-1.5351,-1.5364,-1.5363,-1.5303,-1.529,-1.5254,-1.5239,-1.525,-1.5165,-1.5179,-1.5206,-1.525,-1.5167,-1.513,-1.5116,-1.5304,-1.5305,-1.5306,-1.5307,0,0,-1.5413,-1.5395,-1.538,-1.5366,-1.5348,-1.5317,-1.527,-1.5236,-1.5212,-1.5192,-1.5149,-1.5098,-1.5122,-1.5103,-1.5113,-1.5075,-1.499,-1.5107,-1.5106,-1.5081,-1.489,-1.4866,-1.4849,-1.5004,-1.5001,-1.4999,-1.489,0,-1.5316,-1.5235,-1.5248,-1.5168,-1.513,-1.5161,-1.5118,-1.5101,-1.5099,-1.5065,-1.5062,-1.5024,-1.5061,-1.5049,-1.5014,-1.5008,-1.4951,-1.5016,-1.496,-1.4958,-1.4961,-1.4831,-1.4806,-1.4704,-1.4876,-1.4874,-1.4872,0,-1.5192,-1.5166,-1.5083,-1.5067,-1.5052,-1.5014,-1.4982,-1.4951,-1.4931,-1.4932,-1.491,-1.4926,-1.4875,-1.4923,-1.485,-1.4895,-1.4873,-1.4866,-1.4863,-1.4854,-1.4907,-1.4815,-1.4672,-1.4655,-1.4851,-1.4853,-1.4854,0,-1.5099,-1.5045,-1.4987,-1.4975,-1.4957,-1.4928,-1.4919,-1.4902,-1.488,-1.4852,-1.4836,-1.4803,-1.4783,-1.4755,-1.476,-1.4796,-1.4684,-1.4734,-1.468,-1.4679,-1.4652,-1.4653,-1.4499,-1.4645,-1.4645,-1.4646,-1.4646,0,-1.4987,-1.4934,-1.4945,-1.4908,-1.4848,-1.4863,-1.4803,-1.4797,-1.4781,-1.4742,-1.4767,-1.4729,-1.474,-1.4702,-1.4706,-1.4643,-1.4635,-1.4631,-1.4632,-1.4626,-1.4626,-1.4609,-1.4615,-1.4642,-1.4643,-1.4643,-1.4644,0,-1.4873,-1.4879,-1.4817,-1.4805,-1.48,-1.4756,-1.4744,-1.4709,-1.4709,-1.4659,-1.4648,-1.4647,-1.4603,-1.4607,-1.4558,-1.456,-1.448,-1.4492,-1.4487,-1.4488,-1.4432,-1.4435,-1.4258,-1.4234,-1.44,-1.4398,-1.4397,0,-1.4799,-1.4758,-1.4742,-1.4718,-1.4707,-1.4669,-1.4646,-1.4659,-1.4633,-1.4606,-1.4572,-1.4532,-1.4499,-1.4427,-1.442,-1.4382,-1.439,-1.433,-1.4384,-1.4378,-1.4383,-1.4384,-1.4377,-1.4318,-1.4317,-1.4315,-1.4314,0,-1.4665,-1.4669,-1.4637,-1.4604,-1.4577,-1.4551,-1.4528,-1.4507,-1.4517,-1.4487,-1.4443,-1.4418,-1.4367,-1.4324,-1.4287,-1.4275,-1.4294,-1.4298,-1.4282,-1.4274,-1.4271,-1.4267,-1.4453,-1.4301,-1.4302,-1.4303,-1.4304,-1.4304,-1.4565,-1.4529,-1.4511,-1.4473,-1.4457,-1.4435,-1.4399,-1.4395,-1.4359,-1.432,-1.4329,-1.4279,-1.4256,-1.4209,-1.4193,-1.4152,-1.4172,-1.4151,-1.4145,-1.4138,-1.413,-1.4281,-1.4146,-1.4146,-1.4146,-1.4147,-1.4147,0,-1.4429,-1.4419,-1.4384,-1.4351,-1.4319,-1.4344,-1.4319,-1.429,-1.4245,-1.4224,-1.4192,-1.4139,-1.4097,-1.4087,-1.4046,-1.4015,-1.4022,-1.4003,-1.4003,-1.3999,-1.4116,-1.4131,-1.3997,-1.3997,-1.3998,-1.3998,-1.3998,-1.3998,-1.4354,-1.4293,-1.4295,-1.4225,-1.4215,-1.4166,-1.4149,-1.4127,-1.411,-1.4051,-1.4016,-1.4011,-1.3993,-1.395,-1.3912,-1.391,-1.3891,-1.3868,-1.3868,-1.3977,-1.3991,-1.4006,-1.402,-1.3865,-1.3865,-1.3754,-1.3753,-1.3753]}]]